Location: Doughton Park
(36.4224°N, 81.1835°W)
Time: 22:03:39
(UTC-04:00)

Amateur Radio Satellites - All Passes

Search period start: 20 September 2014 21:33
Search period end: 21 September 2014 21:33
Location: Doughton Park, 36.4224°N, 81.1835°W

Satellite Date Start Highest point End Downlink Frequencies (MHz)
Time Altitude Azimuth
Oscar 11 20 Sep 21:38:21 21:41:52 24° 70° (ENE) 21:45:24 145.825 FM, Beacon 2401.500 USB
Sapphire 20 Sep 21:40:11 21:45:22 44° 58° (ENE) 21:50:32 437.095 MHz 1200 baud AX-25 AFSK
UKube-1 20 Sep 21:55:28 21:59:41 56° 74° (ENE) 22:03:56 145.840 MHz, 145.915 MHz
PCSat 20 Sep 22:06:56 22:12:23 82° 63° (ENE) 22:17:47 145.825 MHz
SO-50 20 Sep 22:26:18 22:30:41 62° 117° (ESE) 22:35:11 436.795 FM
HO-68 20 Sep 22:36:52 22:43:15 35° 262° (W) 22:49:41 435.675 MHz FM
KITSAT 1 20 Sep 22:52:00 22:54:52 12° 329° (NNW) 22:57:45 435.175 FM
FUNcube-1 20 Sep 23:06:29 23:10:52 84° 258° (WSW) 23:15:23 145.950 - 145.970 MHz USB
Oscar 11 20 Sep 23:14:19 23:17:56 25° 264° (W) 23:21:34 145.825 FM, Beacon 2401.500 USB
Sapphire 20 Sep 23:24:21 23:28:27 22° 254° (WSW) 23:32:32 437.095 MHz 1200 baud AX-25 AFSK
UKube-1 20 Sep 23:35:15 23:36:12 11° 268° (W) 23:37:08 145.840 MHz, 145.915 MHz
PCSat 20 Sep 23:53:48 23:55:00 11° 258° (WSW) 23:56:13 145.825 MHz
UOSAT-12 20 Sep 23:57:16 00:01:34 42° 114° (ESE) 00:05:59 437.025 FM, 437.400 FM
SO-50 21 Sep 00:09:01 00:11:40 15° 315° (NW) 00:14:22 436.795 FM
Saudisat 1A 21 Sep 01:10:36 01:12:11 12° 44° (NE) 01:13:45 436.775 MHz
UOSAT-12 21 Sep 01:38:20 01:41:54 21° 311° (NW) 01:45:30 437.025 FM, 437.400 FM
Oscar 16 21 Sep 01:39:28 01:41:18 12° 91° (E) 01:43:08 437.025 USB, Beacon 2401.1428
PANSAT 21 Sep 01:52:09 01:54:57 19° 169° (S) 01:57:45 not established
JAS-1B 21 Sep 02:14:50 02:17:32 13° 92° (E) 02:20:15 435.800 - 435.900 CW/SSB
ISS 21 Sep 02:24:11 02:27:28 65° 136° (SE) 02:30:46 145.800 FM
ITAMSAT 1 21 Sep 02:25:05 02:27:40 14° 92° (E) 02:30:14 435.822 SSB
Uribyol 2 21 Sep 02:28:24 02:31:36 16° 93° (E) 02:34:46 436.500 FM
Oscar 19 21 Sep 02:36:59 02:41:57 47° 99° (E) 02:46:52 437.125 CW, 437.150 USB
RS-15 21 Sep 02:41:19 02:46:56 15° 99° (E) 02:52:28 29.354 - 29.394 USB, Beacon 29.352 USB
Saudisat 1A 21 Sep 02:47:54 02:52:20 83° 241° (WSW) 02:56:43 436.775 MHz
KITSAT 1 21 Sep 02:51:48 02:55:36 14° 34° (NNE) 02:59:23 435.175 FM
AO-27 21 Sep 02:58:47 03:03:24 31° 97° (E) 03:08:00 436.795 MHz FM
Oscar 16 21 Sep 03:15:57 03:21:06 69° 286° (WNW) 03:26:12 437.025 USB, Beacon 2401.1428
AO-Echo 21 Sep 03:17:16 03:22:06 58° 101° (E) 03:27:03 ?
PANSAT 21 Sep 03:31:28 03:34:37 24° 182° (S) 03:37:47 not established
Gurwin Techsat 1B 21 Sep 03:59:10 04:04:24 58° 101° (E) 04:09:37 435.225 FM
ISS 21 Sep 04:02:15 04:04:28 16° 333° (NNW) 04:06:41 145.800 FM
ITAMSAT 1 21 Sep 04:02:22 04:07:31 62° 286° (WNW) 04:12:39 435.822 SSB
JAS-1B 21 Sep 04:03:06 04:08:43 61° 287° (WNW) 04:14:25 435.800 - 435.900 CW/SSB
Uribyol 2 21 Sep 04:06:16 04:11:20 53° 287° (WNW) 04:16:24 436.500 FM
Oscar 19 21 Sep 04:17:21 04:20:54 19° 295° (WNW) 04:24:26 437.125 CW, 437.150 USB
Uosat F 21 Sep 04:31:18 04:33:08 12° 91° (E) 04:34:59 435.120 FM
TMSAT-1 21 Sep 04:35:11 04:40:31 87° 284° (WNW) 04:45:49 436.925 FM
AO-27 21 Sep 04:38:24 04:42:46 28° 292° (WNW) 04:47:09 436.795 MHz FM
OPAL 21 Sep 04:38:45 04:43:24 35° 68° (ENE) 04:48:06 ?
KITSAT 1 21 Sep 04:45:04 04:52:59 56° 57° (ENE) 05:00:51 435.175 FM
RS-15 21 Sep 04:46:23 04:57:29 81° 117° (ESE) 05:08:24 29.354 - 29.394 USB, Beacon 29.352 USB
AO-Echo 21 Sep 04:57:48 05:00:24 15° 295° (WNW) 05:03:01 ?
PANSAT 21 Sep 05:11:46 05:14:15 17° 194° (SSW) 05:16:44 not established
AO-7 21 Sep 05:25:02 05:33:06 54° 102° (ESE) 05:41:08 29.400 - 29.500 MHz
Gurwin Techsat 1B 21 Sep 05:40:38 05:43:51 17° 296° (WNW) 05:47:04 435.225 FM
Uosat F 21 Sep 06:07:20 06:12:19 66° 286° (WNW) 06:17:18 435.120 FM
Hamsat 21 Sep 06:14:36 06:16:49 14° 92° (E) 06:19:01 145.90 MHz
OPAL 21 Sep 06:18:02 06:22:17 26° 262° (W) 06:26:34 ?
JAS-2 21 Sep 06:35:01 06:40:49 38° 99° (E) 06:47:15 435.800 - 435.900 CW/SSB, 435.910 FM
KITSAT 1 21 Sep 06:41:13 06:47:54 30° 254° (WSW) 06:54:35 435.175 FM
SO-50 21 Sep 07:00:25 07:04:40 30° 52° (NE) 07:08:56 436.795 FM
STRAND 1 21 Sep 07:00:48 07:05:38 46° 72° (ENE) 07:10:29 ?
RS-15 21 Sep 07:01:50 07:11:03 30° 320° (NW) 07:20:17 29.354 - 29.394 USB, Beacon 29.352 USB
AO-7 21 Sep 07:18:27 07:25:28 32° 299° (WNW) 07:32:30 29.400 - 29.500 MHz
Hamsat 21 Sep 07:48:59 07:52:57 40° 287° (WNW) 07:56:52 145.90 MHz
MaSat-1 21 Sep 08:02:54 08:07:29 38° 107° (ESE) 08:12:05 437.345 MHz
SO-67 21 Sep 08:11:06 08:14:23 41° 99° (E) 08:17:39 435.3500 MHz FM
JAS-2 21 Sep 08:20:20 08:25:45 33° 291° (WNW) 08:31:45 435.800 - 435.900 CW/SSB, 435.910 FM
UOSAT-12 21 Sep 08:29:43 08:33:18 21° 48° (NE) 08:36:49 437.025 FM, 437.400 FM
SO-50 21 Sep 08:40:58 08:45:10 30° 248° (WSW) 08:49:22 436.795 FM
STRAND 1 21 Sep 08:41:40 08:45:01 18° 267° (W) 08:48:24 ?
ISS 21 Sep 08:55:15 08:58:11 28° 33° (NNE) 09:01:06 145.800 FM
RS-15 21 Sep 09:24:08 09:28:49 13° 355° (N) 09:33:32 29.354 - 29.394 USB, Beacon 29.352 USB
MaSat-1 21 Sep 09:40:15 09:44:18 24° 302° (WNW) 09:48:18 437.345 MHz
UKube-1 21 Sep 09:48:30 09:50:00 12° 92° (E) 09:51:29 145.840 MHz, 145.915 MHz
HO-68 21 Sep 10:06:22 10:13:21 52° 101° (E) 10:20:18 435.675 MHz FM
UOSAT-12 21 Sep 10:09:10 10:13:38 44° 245° (WSW) 10:18:01 437.025 FM, 437.400 FM
ISS 21 Sep 10:31:59 10:34:49 26° 229° (SW) 10:37:39 145.800 FM
FUNcube-1 21 Sep 10:58:50 11:02:34 24° 95° (E) 11:06:14 145.950 - 145.970 MHz USB
Oscar 11 21 Sep 11:03:36 11:07:56 69° 101° (ESE) 11:12:14 145.825 FM, Beacon 2401.500 USB
PCSat 21 Sep 11:05:38 11:08:32 15° 104° (ESE) 11:11:26 145.825 MHz
UKube-1 21 Sep 11:22:13 11:26:28 53° 286° (WNW) 11:30:42 145.840 MHz, 145.915 MHz
RS-15 21 Sep 11:39:06 11:47:23 23° 33° (NNE) 11:55:49 29.354 - 29.394 USB, Beacon 29.352 USB
HO-68 21 Sep 11:54:47 12:00:39 28° 297° (WNW) 12:06:31 435.675 MHz FM
Sapphire 21 Sep 12:19:08 12:24:29 69° 114° (ESE) 12:29:53 437.095 MHz 1200 baud AX-25 AFSK
Oscar 10/S400 21 Sep 12:25:34 03:07:56 44° 228° (SW) 12:49:11 145.825 - 145.975 CW/USB, Beacon 145.810 USB
FUNcube-1 21 Sep 12:34:56 12:38:54 29° 290° (WNW) 12:42:47 145.950 - 145.970 MHz USB
PCSat 21 Sep 12:45:59 12:51:20 64° 299° (WNW) 12:56:43 145.825 MHz
Oscar 16 21 Sep 12:53:47 12:56:39 15° 63° (ENE) 12:59:31 437.025 USB, Beacon 2401.1428
JAS-1B 21 Sep 12:57:24 13:01:44 16° 61° (ENE) 13:05:45 435.800 - 435.900 CW/SSB
ITAMSAT 1 21 Sep 13:40:41 13:43:59 17° 64° (ENE) 13:47:17 435.822 SSB
Uribyol 2 21 Sep 13:43:57 13:47:37 20° 65° (ENE) 13:51:18 436.500 FM
RS-15 21 Sep 13:50:48 14:01:59 75° 58° (ENE) 14:13:37 29.354 - 29.394 USB, Beacon 29.352 USB
Oscar 19 21 Sep 13:51:15 13:56:16 53° 73° (ENE) 14:01:19 437.125 CW, 437.150 USB
Sapphire 21 Sep 14:04:58 14:08:25 17° 312° (NW) 14:11:54 437.095 MHz 1200 baud AX-25 AFSK
AO-27 21 Sep 14:14:31 14:19:14 37° 70° (ENE) 14:23:59 436.795 MHz FM
TMSAT-1 21 Sep 14:17:05 14:19:27 13° 62° (ENE) 14:21:49 436.925 FM
AO-Echo 21 Sep 14:28:03 14:32:40 56° 74° (ENE) 14:37:16 ?
Oscar 16 21 Sep 14:30:19 14:35:26 62° 259° (W) 14:40:36 437.025 USB, Beacon 2401.1428
AO-7 21 Sep 14:36:06 14:38:04 11° 48° (NE) 14:40:01 29.400 - 29.500 MHz
JAS-1B 21 Sep 14:42:53 14:51:38 86° 75° (ENE) 14:58:56 435.800 - 435.900 CW/SSB
Gurwin Techsat 1B 21 Sep 15:17:42 15:22:58 71° 75° (ENE) 15:28:15 435.225 FM
ITAMSAT 1 21 Sep 15:18:00 15:23:01 52° 260° (W) 15:28:04 435.822 SSB
Uribyol 2 21 Sep 15:21:48 15:26:43 45° 261° (W) 15:31:41 436.500 FM
Oscar 19 21 Sep 15:32:44 15:35:53 16° 267° (W) 15:39:02 437.125 CW, 437.150 USB
Uosat F 21 Sep 15:42:17 15:44:47 14° 63° (ENE) 15:47:18 435.120 FM
TMSAT-1 21 Sep 15:53:26 15:58:42 73° 258° (WSW) 16:04:00 436.925 FM
AO-27 21 Sep 15:54:48 15:58:49 23° 265° (W) 16:02:51 436.795 MHz FM
RS-15 21 Sep 16:04:35 16:13:18 27° 257° (WSW) 16:22:21 29.354 - 29.394 USB, Beacon 29.352 USB
AO-Echo 21 Sep 16:09:51 16:11:46 12° 268° (W) 16:13:41 ?
AO-7 21 Sep 16:21:01 16:29:05 58° 67° (ENE) 16:37:09 29.400 - 29.500 MHz
JAS-1B 21 Sep 16:37:39 16:42:30 16° 267° (W) 16:47:00 435.800 - 435.900 CW/SSB
Saudisat 1A 21 Sep 16:51:54 16:56:06 46° 115° (ESE) 17:00:19 436.775 MHz
OPAL 21 Sep 16:54:35 16:55:13 10° 92° (E) 16:55:51 ?
Gurwin Techsat 1B 21 Sep 17:01:27 17:03:24 12° 269° (W) 17:05:21 435.225 FM
Uosat F 21 Sep 17:18:05 17:23:00 62° 258° (WSW) 17:27:58 435.120 FM
MaSat-1 21 Sep 17:58:36 18:02:00 35° 60° (ENE) 18:04:56 437.345 MHz
AO-7 21 Sep 18:15:21 18:22:10 28° 264° (W) 18:29:02 29.400 - 29.500 MHz
OPAL 21 Sep 18:29:28 18:34:38 78° 287° (WNW) 18:39:41 ?
JAS-2 21 Sep 18:30:16 18:35:34 85° 76° (ENE) 18:40:45 435.800 - 435.900 CW/SSB, 435.910 FM
Saudisat 1A 21 Sep 18:32:52 18:35:54 18° 312° (NW) 18:38:57 436.775 MHz
Hamsat 21 Sep 18:39:03 18:43:24 82° 258° (WSW) 18:47:47 145.90 MHz
KITSAT 1 21 Sep 19:10:08 19:17:55 54° 111° (ESE) 19:25:43 435.175 FM
STRAND 1 21 Sep 19:14:48 19:18:28 19° 94° (E) 19:22:06 ?
SO-67 21 Sep 20:14:13 20:17:27 38° 262° (W) 20:20:42 435.3500 MHz FM
HO-68 21 Sep 20:32:52 20:38:52 31° 63° (ENE) 20:44:53 435.675 MHz FM
STRAND 1 21 Sep 20:52:57 20:57:48 43° 289° (WNW) 21:02:38 ?
KITSAT 1 21 Sep 21:06:26 21:13:35 34° 310° (NW) 21:20:47 435.175 FM
Sapphire 21 Sep 21:09:58 21:14:50 33° 55° (NE) 21:19:40 437.095 MHz 1200 baud AX-25 AFSK
SO-50 21 Sep 21:14:46 21:17:20 15° 108° (ESE) 21:19:56 436.795 FM
